Wind_Speed
34 34 34 35 35 35 36 36 37 37 37 38 37 37 37 37 38 38 38 38 38 38 38 37 37 37 37 37 36 36 36 36 36 35 35 35 35 35 35 35 35 35 35
35 36 36 37 37 37 38 38 38 38 39 38 38 38 39 39 40 40 40 40 40 40 40 40 39 39 38 38 37 37 36 36 36 36 35 35 35 36 36 36 36 36 36
37 37 38 38 38 39 39 39 39 39 39 40 40 40 41 41 41 41 41 41 41 41 41 40 40 40 39 38 38 37 37 37 37 37 36 36 36 36 37 37 37 37 37
39 37 39 40 39 40 40 39 39 40 40 41 41 41 41 41 41 41 41 41 41 41 40 40 40 40 40 39 39 38 38 38 38 38 37 37 38 38 37 38 38 38 37
39 39 40 40 41 41 40 40 40 40 41 41 41 42 42 42 41 41 41 41 41 41 40 40 40 40 40 39 39 39 39 38 38 38 38 38 39 39 38 38 38 38 38
41 42 42 41 42 41 40 40 40 41 41 42 42 42 42 41 40 40 40 40 40 40 40 40 40 40 39 39 40 40 39 39 39 39 39 39 39 40 39 39 39 39 38
41 43 43 42 40 40 40 40 40 41 41 42 42 42 41 41 40 41 40 40 40 40 40 40 40 40 39 39 40 40 39 39 39 40 40 40 41 40 40 40 40 39 38
42 42 41 41 41 41 41 41 41 41 41 41 41 41 40 40 40 41 41 40 40 39 40 40 40 40 40 40 40 40 40 40 41 41 41 41 41 41 41 40 40 38 37
41 41 40 41 41 41 41 41 40 41 40 41 41 42 41 40 39 40 41 40 39 39 39 39 39 40 40 40 40 41 41 41 41 41 40 40 40 40 40 39 39 38 37
40 40 40 41 41 41 40 41 41 41 39 40 41 41 41 40 40 40 40 39 38 38 38 37 37 39 40 41 41 41 41 41 41 41 40 41 41 41 40 39 39 38 37
38 40 40 40 41 41 41 40 40 40 40 40 40 40 40 40 40 40 39 39 39 39 39 38 37 37 38 40 40 40 40 40 40 40 40 41 41 40 40 39 38 38 38
39 40 40 40 40 42 42 40 41 40 40 40 39 39 39 39 39 39 39 39 39 39 39 39 38 38 38 39 39 38 38 39 39 38 38 39 39 39 39 38 38 37 37
40 40 40 39 39 40 41 41 41 40 40 40 39 39 39 38 38 39 39 38 39 39 39 39 39 38 38 38 37 37 37 38 38 37 37 38 38 38 38 37 37 37 37
39 39 40 40 39 40 40 40 41 41 40 39 39 39 38 38 37 37 38 38 38 39 39 39 39 39 38 38 37 36 36 37 36 36 37 38 38 38 38 37 37 37 37
36 37 38 38 39 40 39 39 39 40 40 39 38 38 37 37 37 37 37 38 38 38 38 38 39 39 38 37 36 36 35 35 36 36 36 37 37 37 37 37 37 37 37
35 36 37 38 38 38 38 38 37 37 37 37 37 37 37 36 36 36 37 37 38 38 37 36 37 37 37 36 35 34 33 33 34 35 35 36 36 37 36 37 38 37 36
34 34 35 36 36 36 36 36 36 35 36 37 37 36 36 35 35 34 35 35 36 37 36 35 35 35 35 34 34 33 32 32 33 33 35 36 36 36 36 36 37 37 37
33 33 35 35 35 35 35 36 36 35 35 36 37 36 36 36 35 34 34 34 35 35 36 35 34 34 33 33 33 33 33 33 33 33 35 35 35 35 35 35 36 37 37
31 32 33 34 34 34 35 35 35 35 35 35 35 36 36 35 35 34 34 33 34 34 35 34 32 32 33 33 34 34 33 32 32 32 33 33 34 35 36 36 35 36 36
31 31 32 33 34 35 35 35 35 34 34 34 34 34 34 34 34 34 33 33 33 33 33 33 32 32 33 34 33 33 32 32 32 32 32 33 34 35 35 35 35 34 33
31 32 32 33 34 35 36 35 34 34 34 33 34 34 33 34 33 33 33 32 33 32 33 33 32 33 32 32 32 32 32 32 32 33 32 33 33 33 34 33 33 32 31
32 32 33 33 33 33 33 34 34 33 34 34 34 33 33 33 32 32 32 32 32 32 32 32 32 32 32 32 32 32 33 32 32 33 33 32 33 32 31 31 30 30 29
30 31 31 31 31 31 32 33 33 33 34 34 33 33 32 31 31 31 31 32 32 32 32 32 31 32 32 33 32 33 33 32 32 32 32 31 31 31 30 29 28 28 28
28 29 30 31 30 30 31 32 32 33 33 32 32 32 31 31 31 31 31 31 31 31 31 31 31 32 33 32 32 31 31 31 30 30 29 29 29 28 28 26 26 26 26
27 28 28 28 29 29 30 30 31 32 33 32 32 31 31 31 30 31 31 31 30 29 30 31 32 31 31 31 30 29 29 29 29 28 28 28 28 27 26 24 24 25 24
25 26 26 27 28 28 29 30 30 31 31 31 31 32 31 31 30 30 31 30 29 29 30 30 31 30 29 29 28 27 27 27 27 26 27 27 26 25 23 22 22 23 23
Wind_Direction
262 261 263 264 263 263 264 264 264 264 266 268 269 270 271 272 272 273 274 274 275 275 276 276 277 277 277 277 278 279 279 279 280 282 283 282 283 283 284 284 284 283 283
260 262 264 264 264 264 264 265 265 265 267 268 269 270 271 272 272 273 273 273 274 274 274 275 276 276 276 276 277 278 279 279 279 281 282 282 282 283 284 285 284 283 283
262 263 264 264 265 265 266 267 267 267 268 269 270 271 271 273 273 273 273 273 273 273 274 274 275 275 276 276 276 277 278 279 279 279 279 280 281 283 284 283 283 283 283
261 263 264 263 265 265 266 267 268 268 269 270 271 271 272 273 273 272 272 272 273 273 273 274 274 275 276 275 276 276 277 278 278 278 278 279 281 284 285 283 283 283 282
261 262 262 262 264 265 266 267 268 269 270 271 270 270 272 272 272 272 272 272 273 273 273 273 273 273 274 274 275 276 277 277 277 277 278 279 281 283 284 283 283 283 282
261 262 262 263 263 265 266 267 269 270 270 270 270 270 270 270 270 271 272 273 273 273 273 272 272 272 273 274 275 276 276 276 276 276 277 279 281 282 282 282 282 281 282
260 261 261 262 263 264 265 267 268 270 270 270 269 269 268 268 269 271 271 273 273 273 273 273 273 273 273 274 275 276 276 275 275 276 277 279 280 281 281 281 280 279 281
261 260 260 261 263 264 265 266 268 269 270 269 268 268 267 267 269 270 271 272 273 273 273 273 274 274 274 274 275 276 276 275 275 275 277 277 278 280 280 279 278 279 279
263 261 261 262 263 264 265 266 268 270 269 269 269 268 268 267 268 270 271 271 271 273 273 273 274 274 274 274 275 276 276 274 274 274 275 277 278 280 278 278 278 278 278
262 262 263 263 263 264 264 265 266 268 270 269 269 270 270 269 269 269 270 270 271 272 273 275 275 275 274 275 275 276 275 274 274 274 275 277 278 279 277 276 277 277 277
264 265 264 264 262 262 264 265 266 268 269 270 270 270 270 271 271 270 269 269 270 271 273 274 276 275 275 276 277 277 274 273 274 274 275 277 277 278 277 276 277 277 277
266 267 265 264 263 262 262 264 266 267 269 268 269 270 271 271 270 269 269 268 268 270 272 274 275 276 277 277 278 277 274 271 272 273 275 277 279 279 278 276 276 277 277
268 267 266 264 263 262 262 264 266 268 268 267 269 273 272 270 269 269 268 268 269 270 272 274 276 278 278 278 278 276 273 272 271 274 276 277 279 279 278 276 276 277 276
268 268 266 264 262 263 264 266 267 266 267 268 272 274 273 270 269 269 268 269 269 270 272 274 275 279 279 277 277 276 273 272 272 274 276 278 279 279 278 277 277 277 275
268 267 266 264 263 264 264 266 268 266 266 269 272 273 272 272 270 270 269 269 270 271 272 274 276 278 278 276 275 275 273 273 274 274 276 278 278 278 278 278 277 276 274
267 266 265 264 264 263 264 267 268 267 268 269 270 271 271 271 270 270 270 270 271 272 274 275 275 276 276 275 275 274 272 274 276 277 276 277 278 279 280 279 277 275 273
267 265 264 265 265 264 266 268 268 268 269 269 269 270 271 270 270 271 270 271 272 273 274 276 276 275 274 274 275 275 274 275 276 278 277 276 277 280 280 280 278 274 273
266 265 266 265 265 266 268 269 268 268 268 269 269 270 270 269 268 269 271 273 274 275 277 276 275 274 273 274 275 276 275 277 278 278 277 277 277 279 280 281 279 275 274
267 267 268 266 266 267 268 269 268 268 268 270 270 271 271 270 269 270 271 273 274 276 276 275 275 274 272 274 275 276 276 276 278 279 279 278 280 282 283 283 282 277 275
267 269 270 268 267 267 269 269 269 268 269 270 271 271 270 270 270 270 272 273 274 274 274 275 273 273 274 275 277 276 276 275 278 280 279 279 281 283 284 283 281 277 275
269 269 269 270 269 269 270 269 269 268 269 270 271 271 269 270 271 272 272 273 272 272 274 273 272 275 275 277 277 277 276 276 278 280 280 281 282 283 285 284 281 276 274
268 268 268 270 271 270 269 269 268 268 268 269 270 270 269 268 270 273 273 272 271 271 272 273 273 274 276 277 277 277 278 277 278 280 280 281 282 283 285 284 280 277 275
269 269 269 271 273 272 271 270 268 268 267 267 268 268 267 266 270 271 272 272 271 270 271 273 274 275 276 277 277 278 278 279 280 282 281 283 285 285 286 284 281 278 276
270 272 273 274 275 274 272 271 269 267 266 266 267 267 266 267 269 272 272 272 271 270 270 272 273 275 275 275 277 278 278 280 282 283 284 285 285 286 287 284 281 278 278
274 274 274 276 276 274 272 272 272 269 266 265 265 263 263 265 269 270 271 272 271 269 270 271 273 275 274 276 276 277 278 279 281 283 284 284 285 284 284 281 281 280 279
276 276 276 277 278 276 275 275 274 271 268 266 263 262 262 265 268 269 270 270 270 270 270 271 273 274 273 274 276 276 277 279 282 284 284 284 284 283 280 280 282 283 283
Height
5759 5761 5763 5764 5765 5766 5768 5769 5770 5771 5772 5773 5774 5774 5774 5775 5775 5775 5775 5776 5775 5775 5775 5774 5774 5774 5773 5773 5773 5772 5772 5771 5770 5769 5768 5767 5766 5764 5763 5762 5761 5760 5759
5751 5753 5754 5755 5757 5758 5759 5760 5761 5762 5762 5763 5764 5765 5765 5765 5765 5765 5765 5765 5765 5765 5765 5764 5764 5764 5764 5763 5763 5763 5762 5762 5761 5760 5759 5758 5757 5756 5755 5754 5752 5751 5750
5742 5743 5745 5746 5748 5749 5750 5750 5751 5752 5753 5753 5754 5754 5755 5754 5754 5754 5754 5754 5754 5754 5754 5753 5753 5753 5753 5753 5753 5753 5753 5753 5752 5751 5750 5749 5748 5747 5746 5745 5744 5743 5742
5733 5734 5735 5737 5738 5739 5740 5741 5742 5742 5743 5743 5743 5744 5744 5744 5744 5743 5743 5743 5743 5743 5743 5743 5743 5742 5742 5742 5743 5743 5743 5743 5742 5742 5741 5740 5739 5738 5737 5736 5735 5734 5733
5722 5724 5725 5727 5728 5729 5730 5731 5732 5732 5733 5733 5732 5732 5733 5733 5733 5733 5732 5732 5732 5732 5732 5732 5732 5732 5732 5731 5731 5732 5732 5732 5732 5732 5731 5731 5730 5729 5727 5726 5725 5724 5723
5712 5714 5715 5716 5717 5719 5720 5720 5721 5721 5722 5722 5722 5722 5722 5722 5722 5722 5722 5722 5722 5722 5721 5721 5721 5721 5721 5721 5721 5721 5721 5721 5721 5721 5721 5721 5720 5719 5718 5717 5716 5715 5714
5702 5704 5705 5706 5707 5708 5709 5710 5710 5710 5711 5710 5711 5711 5712 5712 5712 5712 5712 5711 5711 5711 5711 5711 5711 5711 5711 5711 5711 5711 5711 5710 5710 5710 5710 5710 5709 5709 5707 5707 5706 5705 5704
5691 5692 5694 5695 5696 5697 5698 5699 5700 5700 5700 5699 5700 5700 5701 5703 5702 5702 5701 5701 5701 5701 5700 5700 5700 5701 5701 5701 5700 5700 5700 5699 5699 5699 5699 5699 5698 5697 5696 5696 5695 5695 5694
5680 5681 5683 5684 5685 5686 5688 5688 5689 5689 5689 5689 5688 5689 5690 5692 5693 5692 5691 5691 5690 5690 5690 5690 5690 5690 5690 5690 5690 5689 5689 5688 5688 5688 5688 5688 5687 5686 5686 5685 5685 5684 5684
5670 5671 5672 5673 5675 5676 5677 5678 5678 5678 5678 5678 5678 5678 5679 5680 5681 5682 5682 5681 5680 5680 5680 5680 5679 5679 5679 5679 5678 5678 5677 5677 5676 5676 5676 5676 5676 5675 5675 5675 5675 5674 5675
5659 5661 5661 5662 5664 5665 5666 5667 5667 5668 5668 5668 5668 5668 5668 5668 5669 5670 5672 5672 5671 5670 5670 5670 5669 5669 5668 5668 5667 5666 5666 5665 5665 5665 5665 5665 5665 5664 5664 5664 5664 5664 5664
5650 5650 5651 5652 5653 5654 5655 5656 5657 5657 5657 5657 5657 5657 5657 5658 5658 5659 5660 5661 5662 5661 5661 5660 5659 5658 5657 5656 5656 5655 5654 5654 5654 5655 5655 5655 5654 5654 5653 5653 5653 5653 5654
5640 5640 5640 5641 5642 5644 5645 5646 5646 5647 5647 5647 5647 5647 5647 5647 5648 5648 5649 5651 5652 5652 5651 5650 5649 5648 5647 5645 5645 5644 5643 5644 5644 5644 5645 5645 5644 5643 5643 5643 5643 5643 5643
5630 5630 5630 5631 5632 5633 5635 5635 5636 5636 5636 5636 5637 5637 5637 5637 5637 5638 5639 5639 5641 5642 5641 5640 5639 5637 5636 5635 5634 5633 5633 5633 5634 5634 5634 5634 5633 5633 5632 5632 5632 5632 5632
5619 5619 5620 5621 5622 5623 5624 5625 5626 5626 5626 5626 5627 5627 5627 5627 5627 5627 5627 5628 5629 5630 5632 5631 5629 5627 5625 5624 5624 5623 5623 5624 5624 5624 5624 5624 5623 5623 5622 5622 5621 5621 5621
5610 5610 5611 5612 5613 5613 5614 5615 5616 5616 5617 5617 5617 5617 5617 5617 5617 5617 5617 5617 5618 5618 5620 5620 5619 5617 5616 5615 5614 5614 5614 5614 5614 5614 5614 5613 5613 5613 5612 5611 5610 5610 5610
5601 5601 5602 5603 5603 5604 5605 5606 5606 5607 5607 5608 5608 5608 5608 5607 5608 5608 5608 5608 5608 5608 5608 5609 5608 5608 5607 5606 5606 5605 5605 5605 5605 5605 5604 5604 5603 5603 5602 5601 5599 5599 5599
5592 5593 5593 5593 5594 5595 5596 5596 5597 5597 5598 5598 5598 5598 5598 5598 5599 5599 5599 5599 5599 5598 5598 5599 5599 5598 5598 5598 5597 5597 5597 5597 5597 5596 5595 5595 5594 5593 5592 5590 5589 5589 5589
5583 5584 5584 5584 5585 5586 5586 5587 5587 5588 5588 5589 5589 5589 5589 5589 5590 5590 5590 5590 5590 5589 5589 5589 5589 5589 5590 5589 5589 5589 5589 5589 5588 5588 5587 5586 5585 5584 5583 5581 5580 5579 5579
5575 5575 5575 5575 5576 5576 5576 5577 5577 5578 5578 5579 5579 5579 5579 5580 5581 5581 5581 5581 5581 5581 5581 5581 5581 5581 5581 5581 5580 5580 5580 5580 5580 5579 5578 5577 5576 5575 5573 5571 5570 5570 5570
5566 5566 5566 5566 5566 5566 5567 5567 5567 5568 5569 5569 5569 5569 5570 5571 5572 5572 5573 5573 5572 5572 5573 5573 5573 5573 5573 5572 5572 5572 5572 5572 5571 5571 5570 5569 5568 5566 5564 5562 5560 5560 5560
5558 5558 5558 5558 5557 5557 5557 5557 5557 5558 5559 5559 5560 5560 5560 5561 5562 5563 5563 5563 5563 5563 5564 5565 5565 5565 5565 5564 5564 5564 5564 5564 5564 5563 5561 5560 5559 5557 5555 5553 5552 5551 5551
5549 5549 5549 5549 5548 5548 5547 5547 5547 5547 5548 5549 5549 5550 5551 5552 5553 5553 5554 5554 5554 5554 5555 5556 5556 5557 5557 5557 5557 5556 5556 5555 5555 5553 5552 5552 5550 5549 5547 5545 5544 5544 5543
5540 5540 5540 5540 5539 5539 5538 5537 5537 5537 5538 5539 5539 5540 5541 5543 5544 5545 5545 5545 5546 5546 5547 5548 5548 5549 5548 5547 5547 5548 5547 5547 5546 5545 5544 5543 5542 5541 5539 5537 5536 5536 5536
5532 5532 5531 5530 5530 5529 5529 5528 5528 5527 5528 5529 5529 5530 5532 5533 5535 5536 5536 5537 5538 5538 5538 5539 5539 5539 5539 5538 5538 5539 5539 5539 5539 5537 5536 5535 5534 5533 5532 5531 5530 5529 5529
5524 5523 5523 5522 5521 5521 5520 5519 5518 5518 5519 5519 5520 5521 5522 5524 5525 5526 5528 5529 5529 5530 5531 5531 5530 5530 5530 5530 5530 5531 5531 5531 5530 5530 5528 5527 5526 5525 5526 5525 5524 5523 5522